Weather History for Wrangell, AK

Change the Weather History Date:

Tuesday, December 6, 2011

  Actual Average Record
Temperature  
Mean Temperature 34 °F -  
Max Temperature 37 °F 37 °F 52 °F (1959)
Min Temperature 30 °F 27 °F 5 °F (1977)
Degree Days  
Heating Degree Days 32    
Moisture  
Dew Point 28 °F    
Average Humidity 80    
Maximum Humidity 93    
Minimum Humidity 60    
Precipitation  
Precipitation 0.00 in - - ()
Sea Level Pressure  
Sea Level Pressure 30.49 in    
Wind  
Wind Speed 5 mph (South)    
Max Wind Speed 10 mph    
Max Gust Speed -    
Visibility 10 miles    
Events      
Averages and records for this station are not official NWS values.
T = Trace of Precipitation, MM = Missing Value Source: NWS Daily Summary

Daily Weather History Graph

Daily Weather History Graph

Search for Another Location

Airport:

Trip Planner

Search our weather history database for the weather conditions in past years. The results will help you decide how hot, cold, wet, or windy it might be!

Date:

Astronomy

Dec. 06, 2011 Rise Set
Actual Time 8:07 AM AKST 3:13 PM AKST
Civil Twilight 7:19 AM AKST 4:00 PM AKST
Nautical Twilight 6:30 AM AKST 4:49 PM AKST
Astronomical Twilight 5:44 AM AKST 5:35 PM AKST
Moon 1:07 PM AKST (12/6) 4:06 AM AKST (12/6)
Length of Visible Light 8h 40m
Length of Day
7h 06m
Waxing Gibbous, 87% of the Moon is Illuminated
Dec 6
Waxing Gibbous
Dec 10
Full
Dec 17
Last Quarter
Dec 24
New
Dec 31
First Quarter

Hourly Weather History & Observations

Time (AKST) Temp. Windchill Dew Point Humidity Pressure Visibility Wind Dir Wind Speed Gust Speed Precip Events Conditions
12:16 AM 35.6 °F 29.9 °F 26.6 °F 70% 30.35 in 10.0 mi WSW 6.9 mph - N/A   Scattered Clouds
12:36 AM 35.6 °F 29.9 °F 26.6 °F 70% 30.36 in 10.0 mi WSW 6.9 mph - N/A   Clear
12:56 AM 35.6 °F 29.2 °F 26.6 °F 70% 30.37 in 10.0 mi WSW 8.1 mph - N/A   Clear
1:16 AM 37.4 °F 30.3 °F 24.8 °F 60% 30.37 in 10.0 mi West 10.4 mph - N/A   Clear
1:36 AM 37.4 °F 30.8 °F 24.8 °F 60% 30.38 in 10.0 mi WSW 9.2 mph - N/A   Clear
1:56 AM 35.6 °F 29.9 °F 26.6 °F 70% 30.39 in 10.0 mi WSW 6.9 mph - N/A   Clear
2:16 AM 35.6 °F 28.6 °F 24.8 °F 65% 30.40 in 10.0 mi West 9.2 mph - N/A   Clear
2:36 AM 35.6 °F 29.2 °F 26.6 °F 70% 30.40 in 10.0 mi West 8.1 mph - N/A   Clear
2:56 AM 35.6 °F 29.9 °F 24.8 °F 65% 30.41 in 10.0 mi West 6.9 mph - N/A   Mostly Cloudy
3:16 AM 35.6 °F 29.2 °F 24.8 °F 65% 30.41 in 10.0 mi West 8.1 mph - N/A   Overcast
3:36 AM 35.6 °F 29.9 °F 26.6 °F 70% 30.42 in 10.0 mi West 6.9 mph - N/A   Overcast
3:56 AM 35.6 °F - 26.6 °F 70% 30.43 in 10.0 mi Calm Calm - N/A   Overcast
4:16 AM 35.6 °F 31.7 °F 26.6 °F 70% 30.43 in 10.0 mi West 4.6 mph - N/A   Overcast
4:36 AM 33.8 °F 29.6 °F 26.6 °F 75% 30.43 in 10.0 mi NW 4.6 mph - N/A   Overcast
4:56 AM 33.8 °F - 28.4 °F 81% 30.43 in 10.0 mi Calm Calm - N/A   Overcast
5:16 AM 33.8 °F - 28.4 °F 81% 30.43 in 10.0 mi Calm Calm - N/A   Overcast
5:36 AM 33.8 °F - 28.4 °F 81% 30.43 in 10.0 mi Calm Calm - N/A   Overcast
5:56 AM 33.8 °F 30.8 °F 28.4 °F 81% 30.44 in 10.0 mi SE 3.5 mph - N/A   Mostly Cloudy
6:16 AM 33.8 °F 30.8 °F 28.4 °F 81% 30.45 in 10.0 mi SSE 3.5 mph - N/A   Mostly Cloudy
6:36 AM 32.0 °F - 28.4 °F 87% 30.45 in 10.0 mi Calm Calm - N/A   Mostly Cloudy
6:56 AM 32.0 °F 27.5 °F 28.4 °F 87% 30.45 in 10.0 mi SE 4.6 mph - N/A   Mostly Cloudy
7:16 AM 32.0 °F 28.7 °F 26.6 °F 80% 30.46 in 10.0 mi South 3.5 mph - N/A   Scattered Clouds
7:36 AM 30.2 °F 25.4 °F 26.6 °F 86% 30.47 in 10.0 mi SE 4.6 mph - N/A   Scattered Clouds
7:56 AM 32.0 °F 27.5 °F 28.4 °F 87% 30.48 in 10.0 mi SSE 4.6 mph - N/A   Scattered Clouds
8:16 AM 32.0 °F - 28.4 °F 87% 30.49 in 10.0 mi Calm Calm - N/A   Scattered Clouds
8:36 AM 32.0 °F - 28.4 °F 87% 30.50 in 10.0 mi Calm Calm - N/A   Scattered Clouds
8:56 AM 32.0 °F 26.4 °F 28.4 °F 87% 30.50 in 10.0 mi SSE 5.8 mph - N/A   Mostly Cloudy
9:16 AM 33.8 °F 27.7 °F 28.4 °F 81% 30.51 in 10.0 mi SE 6.9 mph - N/A   Mostly Cloudy
9:36 AM 33.8 °F 28.6 °F 28.4 °F 81% 30.51 in 10.0 mi SE 5.8 mph - N/A   Mostly Cloudy
9:56 AM 33.8 °F 28.6 °F 30.2 °F 87% 30.52 in 10.0 mi SE 5.8 mph - N/A   Mostly Cloudy
10:16 AM 33.8 °F 28.6 °F 28.4 °F 81% 30.52 in 10.0 mi SE 5.8 mph - N/A   Mostly Cloudy
10:36 AM 33.8 °F 28.6 °F 30.2 °F 87% 30.53 in 10.0 mi SE 5.8 mph - N/A   Mostly Cloudy
10:56 AM 33.8 °F 29.6 °F 30.2 °F 87% 30.53 in 10.0 mi SSE 4.6 mph - N/A   Mostly Cloudy
11:16 AM 33.8 °F 30.8 °F 30.2 °F 87% 30.54 in 10.0 mi ESE 3.5 mph - N/A   Mostly Cloudy
11:36 AM 33.8 °F 30.8 °F 30.2 °F 87% 30.53 in 10.0 mi SSE 3.5 mph - N/A   Mostly Cloudy
11:56 AM 33.8 °F 29.6 °F 30.2 °F 87% 30.54 in 10.0 mi SE 4.6 mph - N/A   Mostly Cloudy
12:16 PM 33.8 °F 30.8 °F 30.2 °F 87% 30.53 in 10.0 mi SE 3.5 mph - N/A   Mostly Cloudy
12:36 PM 35.6 °F - 30.2 °F 81% 30.53 in 10.0 mi Calm Calm - N/A   Mostly Cloudy
12:56 PM 33.8 °F - 30.2 °F 87% 30.54 in 10.0 mi Calm Calm - N/A   Mostly Cloudy
1:16 PM 33.8 °F 30.8 °F 28.4 °F 81% 30.54 in 10.0 mi SE 3.5 mph - N/A   Mostly Cloudy
1:36 PM 33.8 °F 30.8 °F 28.4 °F 81% 30.54 in 10.0 mi SE 3.5 mph - N/A   Mostly Cloudy
1:56 PM 33.8 °F - 30.2 °F 87% 30.54 in 10.0 mi Calm Calm - N/A   Mostly Cloudy
2:16 PM 33.8 °F - 28.4 °F 81% 30.54 in 10.0 mi Calm Calm - N/A   Mostly Cloudy
2:36 PM 33.8 °F - 28.4 °F 81% 30.54 in 10.0 mi Calm Calm - N/A   Mostly Cloudy
2:56 PM 33.8 °F 30.8 °F 28.4 °F 81% 30.55 in 10.0 mi South 3.5 mph - N/A   Mostly Cloudy
3:16 PM 33.8 °F - 28.4 °F 81% 30.55 in 10.0 mi Calm Calm - N/A   Mostly Cloudy
3:36 PM 33.8 °F - 26.6 °F 75% 30.55 in 10.0 mi Calm Calm - N/A   Mostly Cloudy
3:56 PM 33.8 °F - 28.4 °F 81% 30.55 in 10.0 mi Calm Calm - N/A   Overcast
4:16 PM 33.8 °F 30.8 °F 28.4 °F 81% 30.56 in 10.0 mi SE 3.5 mph - N/A   Overcast
4:36 PM 33.8 °F 29.6 °F 30.2 °F 87% 30.56 in 10.0 mi SSE 4.6 mph - N/A   Overcast
4:56 PM 33.8 °F 29.6 °F 28.4 °F 81% 30.56 in 10.0 mi SE 4.6 mph - N/A   Overcast
5:16 PM 32.0 °F - 26.6 °F 80% 30.56 in 10.0 mi Calm Calm - N/A   Overcast
5:36 PM 30.2 °F 26.7 °F 26.6 °F 86% 30.57 in 10.0 mi South 3.5 mph - N/A   Overcast
5:56 PM 30.2 °F 26.7 °F 28.4 °F 93% 30.57 in 10.0 mi SSE 3.5 mph - N/A   Scattered Clouds
6:16 PM 30.2 °F 25.4 °F 26.6 °F 86% 30.57 in 10.0 mi SSE 4.6 mph - N/A   Scattered Clouds
6:36 PM 30.2 °F 25.4 °F 28.4 °F 93% 30.58 in 10.0 mi SSE 4.6 mph - N/A   Scattered Clouds
6:56 PM 30.2 °F 25.4 °F 26.6 °F 86% 30.58 in 10.0 mi SSE 4.6 mph - N/A   Scattered Clouds
7:16 PM 30.2 °F 24.3 °F 28.4 °F 93% 30.59 in 10.0 mi SE 5.8 mph - N/A   Scattered Clouds
7:36 PM 30.2 °F 24.3 °F 28.4 °F 93% 30.59 in 10.0 mi SE 5.8 mph - N/A   Scattered Clouds
7:56 PM 30.2 °F 24.3 °F 28.4 °F 93% 30.59 in 10.0 mi SE 5.8 mph - N/A   Partly Cloudy
8:16 PM 30.2 °F 23.4 °F 28.4 °F 93% 30.59 in 10.0 mi SSE 6.9 mph - N/A   Partly Cloudy
8:36 PM 30.2 °F 25.4 °F 28.4 °F 93% 30.59 in 10.0 mi SSE 4.6 mph - N/A   Partly Cloudy
8:56 PM 30.2 °F 23.4 °F 26.6 °F 86% 30.59 in 10.0 mi SSE 6.9 mph - N/A   Partly Cloudy
9:16 PM 30.2 °F 23.4 °F 28.4 °F 93% 30.59 in 10.0 mi SE 6.9 mph - N/A   Partly Cloudy
9:36 PM 30.2 °F 24.3 °F 26.6 °F 86% 30.59 in 10.0 mi SE 5.8 mph - N/A   Partly Cloudy
9:56 PM 30.2 °F 24.3 °F 26.6 °F 86% 30.59 in 10.0 mi SE 5.8 mph - N/A   Partly Cloudy
10:16 PM 30.2 °F 24.3 °F 28.4 °F 93% 30.59 in 10.0 mi SE 5.8 mph - N/A   Partly Cloudy
10:36 PM 30.2 °F 23.4 °F 28.4 °F 93% 30.59 in 10.0 mi SSE 6.9 mph - N/A   Partly Cloudy
10:56 PM 28.4 °F 24.6 °F 26.6 °F 93% 30.60 in 10.0 mi SE 3.5 mph - N/A   Partly Cloudy
11:16 PM 28.4 °F 23.3 °F 26.6 °F 93% 30.61 in 10.0 mi SSE 4.6 mph - N/A   Partly Cloudy
11:36 PM 28.4 °F 23.3 °F 26.6 °F 93% 30.62 in 10.0 mi SSE 4.6 mph - N/A   Scattered Clouds
11:56 PM 28.4 °F 23.3 °F 24.8 °F 86% 30.62 in 10.0 mi SSE 4.6 mph - N/A   Mostly Cloudy